WZZ95PF EPGD-EDDH

Flight info

Callsign WZZ95PF
Flight time 0h 51m
Altitude 34000
Route DEXIR T671 AGODU L733 BODLA Z717 PODUS L619 BUMIL M748 RARUP
Aircraft A21N/M-SDE2E3FGHIRWXY/LB1

Departure

Time 2026-04-22 19:11
Airport Gdańsk Lech Wałęsa Airport (EPGD)

Arrival

Time 2026-04-22 20:02
Airport Hamburg Helmut Schmidt Airport (EDDH)
Time Latitude Longitude Altitude Speed Heading
2026-04-22 18:32 54.38097 18.46677 458 ft 0 kts 22°
2026-04-22 19:00 54.38088 18.46669 458 ft 4 kts 29°
2026-04-22 19:00 54.38070 18.46642 458 ft 4 kts 74°
2026-04-22 19:00 54.38070 18.46622 458 ft 4 kts 167°
2026-04-22 19:00 54.38073 18.46620 458 ft 1 kts 181°
2026-04-22 19:05 54.38069 18.46620 458 ft 2 kts 181°
2026-04-22 19:06 54.38043 18.46616 458 ft 5 kts 193°
2026-04-22 19:06 54.38000 18.46589 459 ft 8 kts 201°
2026-04-22 19:06 54.37933 18.46599 459 ft 12 kts 154°
2026-04-22 19:07 54.37865 18.46907 459 ft 18 kts 114°
2026-04-22 19:07 54.37812 18.47114 459 ft 20 kts 113°
2026-04-22 19:07 54.37754 18.47353 459 ft 23 kts 114°
2026-04-22 19:07 54.37686 18.47626 459 ft 26 kts 112°
2026-04-22 19:08 54.37615 18.47917 466 ft 28 kts 113°
2026-04-22 19:08 54.37539 18.48228 467 ft 29 kts 112°
2026-04-22 19:08 54.37458 18.48555 474 ft 31 kts 112°
2026-04-22 19:08 54.37371 18.48901 488 ft 32 kts 112°
2026-04-22 19:09 54.37300 18.49135 492 ft 19 kts 155°
2026-04-22 19:09 54.37179 18.49071 495 ft 20 kts 242°
2026-04-22 19:09 54.37191 18.48924 487 ft 20 kts 292°
2026-04-22 19:09 54.37215 18.48814 492 ft 0 kts 291°
2026-04-22 19:10 54.37290 18.48510 482 ft 66 kts 292°
2026-04-22 19:11 54.37567 18.47390 467 ft 135 kts 293°
2026-04-22 19:11 54.37963 18.45769 808 ft 151 kts 293°
2026-04-22 19:11 54.38340 18.44104 1477 ft 151 kts 294°
2026-04-22 19:11 54.38761 18.42397 1993 ft 162 kts 296°
2026-04-22 19:12 54.39218 18.40550 2466 ft 175 kts 296°
2026-04-22 19:12 54.39720 18.38547 2961 ft 190 kts 296°
2026-04-22 19:12 54.40264 18.36372 3414 ft 209 kts 296°
2026-04-22 19:12 54.40848 18.34014 4058 ft 218 kts 297°
2026-04-22 19:13 54.41447 18.31590 4905 ft 222 kts 297°
2026-04-22 19:13 54.42052 18.29137 5719 ft 225 kts 298°
2026-04-22 19:13 54.42666 18.26649 6528 ft 228 kts 297°
2026-04-22 19:13 54.43198 18.24011 7126 ft 244 kts 286°
2026-04-22 19:14 54.43150 18.20949 7585 ft 271 kts 260°
2026-04-22 19:14 54.42424 18.17877 8271 ft 283 kts 250°
2026-04-22 19:14 54.41556 18.14812 9021 ft 288 kts 250°
2026-04-22 19:14 54.40673 18.11689 9791 ft 292 kts 250°
2026-04-22 19:15 54.40090 18.09592 10263 ft 296 kts 250°
2026-04-22 19:15 54.38880 18.05156 10753 ft 319 kts 250°
2026-04-22 19:15 54.37919 18.01619 11141 ft 333 kts 250°
2026-04-22 19:15 54.36931 17.97984 11785 ft 339 kts 250°
2026-04-22 19:16 54.35943 17.94346 12483 ft 343 kts 250°
2026-04-22 19:16 54.34932 17.90621 13197 ft 347 kts 251°
2026-04-22 19:16 54.33911 17.86849 13918 ft 351 kts 251°
2026-04-22 19:16 54.32873 17.83030 14541 ft 355 kts 251°
2026-04-22 19:17 54.31826 17.79189 15181 ft 358 kts 251°
2026-04-22 19:17 54.30766 17.75304 15822 ft 362 kts 251°
2026-04-22 19:17 54.29693 17.71379 16473 ft 365 kts 250°
2026-04-22 19:17 54.28612 17.67423 17117 ft 369 kts 250°
2026-04-22 19:18 54.27520 17.63428 17755 ft 372 kts 250°
2026-04-22 19:18 54.26414 17.59395 18384 ft 376 kts 250°
2026-04-22 19:18 54.25297 17.55335 18919 ft 380 kts 250°
2026-04-22 19:18 54.24167 17.51229 19408 ft 384 kts 249°
2026-04-22 19:19 54.23020 17.47071 19894 ft 389 kts 249°
2026-04-22 19:19 54.21848 17.42931 20379 ft 394 kts 248°
2026-04-22 19:19 54.20620 17.38713 20882 ft 398 kts 247°
2026-04-22 19:19 54.19377 17.34472 21359 ft 402 kts 247°
2026-04-22 19:20 54.18113 17.30171 21838 ft 407 kts 247°
2026-04-22 19:20 54.16837 17.25831 22310 ft 411 kts 246°
2026-04-22 19:20 54.15549 17.21454 22790 ft 415 kts 246°
2026-04-22 19:20 54.14245 17.17027 23244 ft 419 kts 246°
2026-04-22 19:21 54.12929 17.12568 23679 ft 423 kts 246°
2026-04-22 19:21 54.11600 17.08070 24059 ft 427 kts 245°
2026-04-22 19:21 54.10264 17.03523 24440 ft 430 kts 247°
2026-04-22 19:21 54.09215 16.98755 24811 ft 430 kts 256°
2026-04-22 19:22 54.08393 16.93841 25187 ft 433 kts 257°
2026-04-22 19:22 54.07582 16.88870 25559 ft 437 kts 257°
2026-04-22 19:22 54.06757 16.83863 25943 ft 440 kts 257°
2026-04-22 19:22 54.05931 16.78909 26315 ft 443 kts 256°
2026-04-22 19:23 54.05085 16.73857 26666 ft 446 kts 256°
2026-04-22 19:23 54.04229 16.68768 27005 ft 449 kts 256°
2026-04-22 19:23 54.03363 16.63638 27347 ft 452 kts 256°
2026-04-22 19:23 54.02491 16.58475 27669 ft 456 kts 256°
2026-04-22 19:24 54.01612 16.53290 27970 ft 459 kts 256°
2026-04-22 19:24 54.00722 16.48053 28309 ft 461 kts 256°
2026-04-22 19:24 53.99823 16.42804 28624 ft 464 kts 255°
2026-04-22 19:24 53.98918 16.37527 28927 ft 467 kts 255°
2026-04-22 19:25 53.98006 16.32199 29229 ft 470 kts 255°
2026-04-22 19:25 53.97083 16.26850 29520 ft 473 kts 255°
2026-04-22 19:25 53.96152 16.21468 29803 ft 476 kts 255°
2026-04-22 19:25 53.95213 16.16066 30095 ft 479 kts 254°
2026-04-22 19:26 53.94007 16.10777 30325 ft 483 kts 243°
2026-04-22 19:26 53.92293 16.05861 30569 ft 485 kts 236°
2026-04-22 19:26 53.90420 16.01070 30762 ft 488 kts 235°
2026-04-22 19:26 53.88516 15.96275 30980 ft 491 kts 235°
2026-04-22 19:27 53.86616 15.91458 31209 ft 493 kts 236°
2026-04-22 19:27 53.84713 15.86604 31456 ft 495 kts 235°
2026-04-22 19:27 53.82819 15.81750 31776 ft 494 kts 235°
2026-04-22 19:27 53.80946 15.76961 32060 ft 494 kts 235°
2026-04-22 19:28 53.79047 15.72124 32343 ft 494 kts 235°
2026-04-22 19:28 53.77148 15.67294 32621 ft 494 kts 235°
2026-04-22 19:28 53.75242 15.62454 32891 ft 494 kts 235°
2026-04-22 19:28 53.73342 15.57627 33173 ft 494 kts 234°
2026-04-22 19:29 53.71435 15.52803 33402 ft 494 kts 234°
2026-04-22 19:29 53.70143 15.49539 33569 ft 495 kts 234°
2026-04-22 19:29 53.68252 15.44767 33794 ft 495 kts 234°
2026-04-22 19:29 53.66312 15.39869 34036 ft 495 kts 234°
2026-04-22 19:30 53.65066 15.36658 34180 ft 495 kts 235°
2026-04-22 19:30 53.60714 15.25297 34259 ft 496 kts 235°
2026-04-22 19:31 53.56947 15.15559 34240 ft 496 kts 235°
2026-04-22 19:31 53.53164 15.05832 34251 ft 497 kts 234°
2026-04-22 19:32 53.49999 14.95511 34219 ft 501 kts 257°
2026-04-22 19:32 53.48954 14.83965 34241 ft 500 kts 264°
2026-04-22 19:33 53.48006 14.72369 34237 ft 501 kts 263°
2026-04-22 19:33 53.46977 14.60877 34238 ft 501 kts 263°
2026-04-22 19:34 53.45922 14.49325 34234 ft 501 kts 262°
2026-04-22 19:34 53.44862 14.37784 34247 ft 501 kts 262°
2026-04-22 19:35 53.43784 14.26246 34262 ft 501 kts 262°
2026-04-22 19:35 53.42691 14.14649 34265 ft 500 kts 262°
2026-04-22 19:36 53.41606 14.03193 34264 ft 501 kts 262°
2026-04-22 19:36 53.40489 13.91616 34268 ft 504 kts 261°
2026-04-22 19:37 53.39355 13.79957 34274 ft 504 kts 261°
2026-04-22 19:37 53.38227 13.68437 34280 ft 504 kts 261°
2026-04-22 19:38 53.37074 13.56841 34283 ft 504 kts 261°
2026-04-22 19:38 53.36071 13.45259 34267 ft 501 kts 271°
2026-04-22 19:38 53.36419 13.39504 34252 ft 491 kts 285°
2026-04-22 19:39 53.37277 13.34047 33909 ft 479 kts 290°
2026-04-22 19:39 53.38211 13.28746 33599 ft 473 kts 290°
2026-04-22 19:39 53.39124 13.23475 33275 ft 469 kts 289°
2026-04-22 19:39 53.40000 13.18221 32976 ft 466 kts 289°
2026-04-22 19:40 53.40852 13.12996 32698 ft 464 kts 288°
2026-04-22 19:40 53.41689 13.07796 32438 ft 461 kts 288°
2026-04-22 19:40 53.42523 13.02618 32177 ft 458 kts 288°
2026-04-22 19:40 53.43347 12.97478 31899 ft 456 kts 288°
2026-04-22 19:41 53.44169 12.92345 31643 ft 455 kts 288°
2026-04-22 19:41 53.44986 12.87233 31394 ft 452 kts 287°
2026-04-22 19:41 53.45795 12.82134 31141 ft 450 kts 287°
2026-04-22 19:41 53.46595 12.77079 30891 ft 448 kts 287°
2026-04-22 19:42 53.47390 12.72031 30527 ft 444 kts 287°
2026-04-22 19:42 53.48178 12.67028 29962 ft 443 kts 287°
2026-04-22 19:42 53.48965 12.62031 29324 ft 442 kts 287°
2026-04-22 19:42 53.49746 12.57051 28732 ft 440 kts 287°
2026-04-22 19:43 53.51284 12.47157 27583 ft 434 kts 286°
2026-04-22 19:43 53.52040 12.42275 27021 ft 430 kts 286°
2026-04-22 19:43 53.52776 12.37484 26472 ft 426 kts 286°
2026-04-22 19:44 53.53508 12.32685 25955 ft 421 kts 286°
2026-04-22 19:44 53.54235 12.27932 25459 ft 416 kts 286°
2026-04-22 19:44 53.54949 12.23252 24971 ft 411 kts 286°
2026-04-22 19:44 53.55657 12.18614 24497 ft 405 kts 286°
2026-04-22 19:45 53.56353 12.14050 24027 ft 400 kts 286°
2026-04-22 19:45 53.57036 12.09544 23509 ft 395 kts 286°
2026-04-22 19:45 53.57711 12.05082 22956 ft 390 kts 286°
2026-04-22 19:45 53.58370 12.00687 22415 ft 386 kts 286°
2026-04-22 19:46 53.59015 11.96379 21873 ft 381 kts 285°
2026-04-22 19:46 53.59658 11.92078 21348 ft 377 kts 285°
2026-04-22 19:46 53.60294 11.87818 20856 ft 373 kts 285°
2026-04-22 19:46 53.60932 11.83546 20339 ft 370 kts 286°
2026-04-22 19:47 53.61548 11.79417 19847 ft 366 kts 286°
2026-04-22 19:47 53.62162 11.75277 19349 ft 363 kts 286°
2026-04-22 19:47 53.62777 11.71124 18874 ft 359 kts 286°
2026-04-22 19:47 53.63372 11.67117 18460 ft 354 kts 286°
2026-04-22 19:48 53.63964 11.63135 18068 ft 347 kts 286°
2026-04-22 19:48 53.64540 11.59231 17738 ft 339 kts 286°
2026-04-22 19:48 53.65104 11.55384 17427 ft 330 kts 286°
2026-04-22 19:48 53.65641 11.51708 17132 ft 324 kts 286°
2026-04-22 19:49 53.66182 11.48021 16830 ft 323 kts 286°
2026-04-22 19:49 53.66721 11.44331 16565 ft 335 kts 286°
2026-04-22 19:49 53.67305 11.40356 16311 ft 361 kts 286°
2026-04-22 19:49 53.67921 11.36117 16063 ft 371 kts 286°
2026-04-22 19:50 53.68526 11.31913 15789 ft 367 kts 286°
2026-04-22 19:50 53.69126 11.27742 15520 ft 365 kts 286°
2026-04-22 19:50 53.69722 11.23583 15249 ft 364 kts 286°
2026-04-22 19:50 53.70317 11.19431 14981 ft 363 kts 286°
2026-04-22 19:51 53.70908 11.15305 14717 ft 361 kts 287°
2026-04-22 19:51 53.71678 11.11277 14441 ft 358 kts 293°
2026-04-22 19:51 53.72549 11.07430 14043 ft 352 kts 294°
2026-04-22 19:51 53.73440 11.03604 13527 ft 347 kts 294°
2026-04-22 19:52 53.74317 10.99839 12999 ft 343 kts 294°
2026-04-22 19:52 53.75188 10.96110 12483 ft 339 kts 294°
2026-04-22 19:52 53.76048 10.92422 11977 ft 335 kts 294°
2026-04-22 19:52 53.76896 10.88770 11478 ft 332 kts 294°
2026-04-22 19:53 53.77731 10.85157 10925 ft 327 kts 294°
2026-04-22 19:53 53.78543 10.81617 10380 ft 317 kts 294°
2026-04-22 19:53 53.79319 10.78197 9959 ft 307 kts 294°
2026-04-22 19:53 53.80063 10.74895 9518 ft 295 kts 294°
2026-04-22 19:54 53.80780 10.71706 9125 ft 285 kts 294°
2026-04-22 19:54 53.81253 10.68490 8700 ft 283 kts 275°
2026-04-22 19:54 53.81113 10.65169 8339 ft 283 kts 266°
2026-04-22 19:54 53.80820 10.61886 7951 ft 282 kts 264°
2026-04-22 19:55 53.80507 10.58622 7522 ft 280 kts 264°
2026-04-22 19:55 53.80195 10.55367 7057 ft 281 kts 264°
2026-04-22 19:55 53.79880 10.52112 6543 ft 279 kts 264°
2026-04-22 19:55 53.79570 10.48906 6012 ft 274 kts 264°
2026-04-22 19:56 53.79266 10.45721 5591 ft 272 kts 264°
2026-04-22 19:56 53.78971 10.42586 5307 ft 266 kts 264°
2026-04-22 19:56 53.78683 10.39515 4920 ft 264 kts 264°
2026-04-22 19:56 53.78395 10.36452 4448 ft 264 kts 264°
2026-04-22 19:57 53.78115 10.33424 4056 ft 263 kts 264°
2026-04-22 19:57 53.77799 10.30410 3937 ft 251 kts 257°
2026-04-22 19:57 53.77142 10.27772 3910 ft 236 kts 243°
2026-04-22 19:57 53.76253 10.25568 3865 ft 220 kts 234°
2026-04-22 19:58 53.75266 10.23670 3654 ft 209 kts 234°
2026-04-22 19:58 53.74353 10.21820 3414 ft 197 kts 234°
2026-04-22 19:58 53.73501 10.20084 3201 ft 188 kts 234°
2026-04-22 19:58 53.72697 10.18448 2932 ft 180 kts 234°
2026-04-22 19:59 53.71911 10.16846 2681 ft 176 kts 235°
2026-04-22 20:00 53.67449 10.07775 1212 ft 138 kts 237°
2026-04-22 20:00 53.66846 10.06507 1093 ft 138 kts 238°
2026-04-22 20:01 53.66228 10.05276 897 ft 137 kts 235°
2026-04-22 20:01 53.65616 10.04054 745 ft 135 kts 236°
2026-04-22 20:01 53.65020 10.02838 536 ft 136 kts 234°
2026-04-22 20:01 53.64414 10.01623 330 ft 135 kts 235°
2026-04-22 20:02 53.63832 10.00427 184 ft 133 kts 233°
2026-04-22 20:02 53.63234 9.99232 59 ft 126 kts 234°
2026-04-22 20:02 53.62739 9.98211 48 ft 96 kts 229°
2026-04-22 20:02 53.62531 9.97805 46 ft 11 kts 198°
2026-04-22 20:03 53.62448 9.97813 48 ft 14 kts 146°
2026-04-22 20:03 53.62439 9.97982 52 ft 12 kts 80°
2026-04-22 20:03 53.62458 9.98063 50 ft 8 kts 57°
2026-04-22 20:03 53.62496 9.98159 52 ft 11 kts 54°
2026-04-22 20:04 53.62551 9.98272 52 ft 14 kts 51°
2026-04-22 20:04 53.62640 9.98453 52 ft 23 kts 50°
2026-04-22 20:04 53.62747 9.98668 52 ft 25 kts 50°
2026-04-22 20:04 53.62860 9.98896 52 ft 26 kts 50°
2026-04-22 20:05 53.62973 9.99127 52 ft 19 kts 50°
2026-04-22 20:05 53.63053 9.99290 52 ft 19 kts 54°
2026-04-22 20:05 53.63128 9.99476 51 ft 20 kts 56°
2026-04-22 20:05 53.63204 9.99635 53 ft 15 kts 50°
2026-04-22 20:06 53.63280 9.99774 54 ft 17 kts 58°
2026-04-22 20:06 53.63362 9.99927 54 ft 18 kts 51°
2026-04-22 20:06 53.63423 10.00060 54 ft 7 kts 63°
2026-04-22 20:06 53.63419 10.00150 54 ft 9 kts 111°
2026-04-22 20:07 53.63411 10.00261 54 ft 2 kts 68°
2026-04-22 20:07 53.63412 10.00265 54 ft 2 kts 76°
2026-04-22 20:07 53.63413 10.00305 54 ft 5 kts 86°
2026-04-22 20:07 53.63413 10.00321 54 ft 1 kts 85°
2026-04-22 20:08 53.63413 10.00320 54 ft 0 kts 85°